Location: Coopersdale
(40.3556°N, 78.9372°W)
Time: 09:33:27
(UTC+00:00)

Tiros 1 - All Passes

Search period start: 24 January 2021 00:00
Search period end: 03 February 2021 00:00
Orbit: 630 x 663 km, 48.4° (Epoch: 24 January)

Date Brightness Start Highest point End Pass type
(mag) Time Alt. Az. Time Alt. Az. Time Alt. Az.
24 Jan - 00:01:51 10° WSW 00:06:26 57° NNW 00:10:59 10° NE visible
24 Jan - 01:45:09 10° WNW 01:49:16 30° N 01:53:21 10° ENE visible
24 Jan - 03:27:54 10° NW 03:32:16 39° NNE 03:36:37 10° E night (unlit)
24 Jan - 05:10:05 10° WNW 05:14:41 67° SW 05:19:16 10° SE night (unlit)
24 Jan - 06:54:15 10° WSW 06:56:11 12° SW 06:58:08 10° SSW night (unlit)
24 Jan - 21:06:11 10° SSE 21:08:38 14° SE 21:11:04 10° E daylight
24 Jan - 22:45:34 10° SW 22:50:12 74° SSE 22:54:50 10° ENE visible
25 Jan - 00:28:21 10° W 00:32:40 37° NNW 00:36:59 10° NE visible
25 Jan - 02:11:34 10° WNW 02:15:41 30° N 02:19:48 10° ENE visible
25 Jan - 03:53:54 10° NW 03:58:29 61° NNE 04:03:04 10° ESE night (unlit)
25 Jan - 05:36:24 10° WNW 05:40:28 31° SW 05:44:33 10° SSE night (unlit)
25 Jan - 21:30:06 10° SSW 21:34:15 32° SE 21:38:21 10° ENE daylight
25 Jan - 23:11:39 10° WSW 23:16:15 60° NNW 23:20:51 10° NE visible
26 Jan - 00:54:56 10° WNW 00:59:02 30° N 01:03:09 10° ENE visible
26 Jan - 02:37:44 10° NW 02:42:04 38° NNE 02:46:23 10° E visible
26 Jan - 04:19:54 10° WNW 04:24:31 73° SW 04:29:07 10° SE night (unlit)
26 Jan - 06:03:45 10° W 06:06:04 14° SW 06:08:24 10° SSW night (unlit)
26 Jan - 20:16:25 10° SSE 20:18:30 13° SE 20:20:36 10° ESE daylight
26 Jan - 21:55:25 10° SW 22:00:02 69° SE 22:04:40 10° ENE daylight
26 Jan - 23:38:06 10° W 23:42:28 39° NNW 23:46:50 10° NE visible
27 Jan - 01:21:22 10° WNW 01:25:28 30° N 01:29:34 10° ENE visible
27 Jan - 03:03:44 10° NW 03:08:18 58° NNE 03:12:51 10° ESE night (unlit)
27 Jan - 04:46:10 10° WNW 04:50:21 34° SW 04:54:30 10° SSE night (unlit)
27 Jan - 20:40:02 10° SSW 20:44:06 29° SE 20:48:08 10° ENE daylight
27 Jan - 22:21:26 10° WSW 22:26:04 64° NNW 22:30:40 10° NE daylight
28 Jan - 00:04:41 10° WNW 00:08:50 31° N 00:12:57 10° ENE visible
28 Jan - 01:47:33 10° NW 01:51:51 36° NNE 01:56:09 10° E visible
28 Jan - 03:29:44 10° WNW 03:34:21 78° SSW 03:38:58 10° SE night (unlit)
28 Jan - 05:13:19 10° W 05:15:57 15° SW 05:18:36 10° SSW night (unlit)
28 Jan - 19:26:45 10° SSE 19:28:23 12° SE 19:30:02 10° ESE daylight
28 Jan - 21:05:15 10° SW 21:09:53 63° SE 21:14:29 10° ENE daylight
28 Jan - 22:47:51 10° W 22:52:16 40° NNW 22:56:40 10° NE visible
29 Jan - 00:31:09 10° WNW 00:35:15 30° N 00:39:21 10° ENE visible
29 Jan - 02:13:34 10° NW 02:18:07 54° NNE 02:22:39 10° ESE visible
29 Jan - 03:55:57 10° WNW 04:00:11 37° SW 04:04:26 10° SSE night (unlit)
29 Jan - 19:50:01 10° SSW 19:53:57 27° SE 19:57:54 10° E daylight
29 Jan - 21:31:13 10° WSW 21:35:52 68° NNW 21:40:31 10° ENE daylight
29 Jan - 23:14:27 10° WNW 23:18:37 31° N 23:22:47 10° NE visible
30 Jan - 00:57:22 10° NW 01:01:39 35° NNE 01:05:55 10° E visible
30 Jan - 02:39:33 10° WNW 02:44:11 84° SSW 02:48:49 10° SE visible
30 Jan - 04:22:56 10° W 04:25:50 17° SW 04:28:44 10° S night (unlit)
30 Jan - 18:37:20 10° SE 18:38:16 11° SE 18:39:12 10° ESE daylight
30 Jan - 20:15:07 10° SW 20:19:44 59° SE 20:24:19 10° ENE daylight
30 Jan - 21:57:37 10° W 22:02:04 42° NNW 22:06:30 10° NE daylight
30 Jan - 23:40:56 10° WNW 23:45:03 30° N 23:49:08 10° ENE visible
31 Jan - 01:23:23 10° NW 01:27:56 52° NNE 01:32:26 10° E visible
31 Jan - 03:05:44 10° WNW 03:10:03 40° SW 03:14:22 10° SSE night (unlit)
31 Jan - 18:59:58 10° S 19:03:49 25° SE 19:07:39 10° E daylight
31 Jan - 20:41:00 10° WSW 20:45:42 73° NNW 20:50:21 10° ENE daylight
31 Jan - 22:24:12 10° WNW 22:28:24 32° N 22:32:35 10° NE daylight
01 Feb - 00:07:11 10° NW 00:11:27 34° NNE 00:15:41 10° ENE visible
01 Feb - 01:49:23 10° WNW 01:54:01 89° SW 01:58:39 10° ESE visible
01 Feb - 03:32:35 10° W 03:35:43 18° SW 03:38:51 10° S night (unlit)
01 Feb - 19:24:58 10° SW 19:29:34 54° SE 19:34:08 10° ENE daylight
01 Feb - 21:07:22 10° W 21:11:52 44° NNW 21:16:20 10° NE daylight
01 Feb - 22:50:43 10° WNW 22:54:50 30° N 22:58:55 10° ENE daylight
02 Feb - 00:33:13 10° NW 00:37:44 49° NNE 00:42:14 10° E visible
02 Feb - 02:15:32 10° WNW 02:19:54 43° SW 02:24:17 10° SSE visible
02 Feb - 18:09:58 10° S 18:13:41 23° SE 18:17:22 10° E daylight
02 Feb - 19:50:48 10° WSW 19:55:30 78° NNW 20:00:12 10° ENE daylight
02 Feb - 21:33:57 10° WNW 21:38:12 33° N 21:42:24 10° NE daylight
02 Feb - 23:16:59 10° NW 23:21:14 34° N 23:25:27 10° ENE visible
